Flag for U.S.A. Weather past 2 weeks in Santa Rosa, California, U.S.A.

Now
58 °F

Passing clouds.


Feels Like: 58 °F
Forecast: 57 / 82 °F
Wind: 5 mph from South

Location: Santa Rosa Sonoma County Airport

Current Time: Jul 3, 2015 at 5:50:26 AM

Latest Report: Jul 3, 2015 at 4:53 AM


Visibility: 10 mi

Pressure: 29.89 "Hg

Humidity: 90%

Dew point: 55 °F

Location of Santa RosaLocation

Historic Weather in Santa Rosa — Graph

°F

Santa Rosa temperature yesterday

Maximum temperature yesterday: 79 °F (at 3:53 PM)
Minimum temperature yesterday: 56 °F (at 2:53 AM)
Average temperature yesterday: 65 °F

Past Weeks' High & Low Weather Summary

 TemperatureHumidityPressure
High101 °F (Jun 30, 4:53 PM)100% (Jun 18, 4:53 AM)30.04 "Hg (Jun 18, 4:53 AM)
Low45 °F (Jun 19, 5:53 AM)21% (Jun 30, 3:53 PM)29.75 "Hg (Jun 30, 5:53 PM)
Average66 °F65%29.90 "Hg
* Reported Jun 18 3:53 AM — Jul 3 3:53 AM, Santa Rosa, Weather by CustomWeather, © 2015

Note: Actual official high and low records may vary slightly from our data, if they occured in-between our weather recording intervals... More about our weather records

Advertising

Santa Rosa weather history for previous 24 hours

 ConditionsComfort  
Time TempWeatherWind HumidityBarometerVisibility
3:53 AM
Fri, Jul 3
58 °FPassing clouds.5 mph90%29.88 "Hg10 mi
2:53 AM59 °FPassing clouds.6 mph90%29.89 "Hg10 mi
1:53 AM58 °FPassing clouds.5 mph93%29.89 "Hg10 mi
12:53 AM58 °FClear.6 mph93%29.91 "Hg10 mi
11:53 PM
Thu, Jul 2
58 °FLight rain. Passing clouds.No wind90%29.93 "Hg10 mi
10:53 PM58 °FPassing clouds.6 mph87%29.94 "Hg10 mi
9:53 PM58 °FClear.8 mph87%29.93 "Hg10 mi
8:53 PM60 °FSunny.8 mph80%29.90 "Hg10 mi
7:53 PM65 °FSunny.10 mph70%29.90 "Hg10 mi
6:53 PM71 °FSunny.13 mph59%29.87 "Hg10 mi
5:53 PM74 °FSunny.9 mph56%29.86 "Hg10 mi
4:53 PM73 °FScattered clouds.13 mph57%29.88 "Hg10 mi
3:53 PM79 °FScattered clouds.13 mph47%29.88 "Hg10 mi
2:53 PM78 °FScattered clouds.8 mph52%29.89 "Hg10 mi
1:53 PM76 °FPartly sunny.8 mph54%29.92 "Hg10 mi
12:53 PM74 °FPartly sunny.9 mph57%29.93 "Hg10 mi
11:53 AM71 °FScattered clouds.7 mph61%29.93 "Hg10 mi
10:53 AM70 °FScattered clouds.8 mph64%29.93 "Hg10 mi
9:53 AM68 °FScattered clouds.3 mph65%29.92 "Hg10 mi
8:53 AM65 °FPartly sunny.7 mph70%29.92 "Hg10 mi
7:53 AM62 °FPartly sunny.No wind78%29.91 "Hg10 mi
6:53 AM60 °FPartly sunny.5 mph80%29.90 "Hg10 mi
5:53 AM59 °FLight rain. Passing clouds.3 mph84%29.89 "Hg10 mi
Weather by CustomWeather, © 2015

See weather overviewHow to use our weather pages